• In Italy
  • List of Countries
  • For 7 days
  • Water Temperature
  • Satellite Maps
  • Weather Map
  • Weather Widgets
  • user-avatar
    Login

    Hourly Weather Baraki Barak

    Today, 17 July, Tuesday

    Time Temperature Precipitation Wind Pressure Humidity
    00:00 +27°C° 0 mm 2 mps 596 mmHg 46%
    01:00 +26°C° 0 mm 1 mps 596 mmHg 49%
    02:00 +26°C° 0 mm 1 mps 596 mmHg 52%
    03:00 +25°C° 0 mm 1 mps 596 mmHg 54%
    04:00 +25°C° 0 mm 1 mps 596 mmHg 55%
    05:00 +22°C° 0 mm 0 mps 595 mmHg 57%
    06:00 +23°C° 0 mm 0 mps 596 mmHg 52%
    07:00 +25°C° 0 mm 1 mps 596 mmHg 47%
    08:00 +26°C° 0 mm 1 mps 597 mmHg 42%
    09:00 +27°C° 0.1 mm 1 mps 597 mmHg 39%
    10:00 +29°C° 0.1 mm 1 mps 597 mmHg 35%
    11:00 +30°C° 0.1 mm 1 mps 597 mmHg 32%
    12:00 +31°C° 0.2 mm 1 mps 597 mmHg 30%
    13:00 +32°C° 0.2 mm 2 mps 597 mmHg 27%
    14:00 +34°C° 0.2 mm 2 mps 598 mmHg 25%
    15:00 +32°C° 0.4 mm 2 mps 597 mmHg 27%
    16:00 +33°C° 0.4 mm 3 mps 597 mmHg 30%
    17:00 +31°C° 0.4 mm 3 mps 596 mmHg 32%
    18:00 +30°C° 0.3 mm 3 mps 596 mmHg 34%
    19:00 +29°C° 0.3 mm 3 mps 596 mmHg 36%
    20:00 +28°C° 0.3 mm 2 mps 596 mmHg 38%
    21:00 +28°C° 0.1 mm 2 mps 596 mmHg 39%
    22:00 +28°C° 0.1 mm 1 mps 597 mmHg 40%
    23:00 +27°C° 0.1 mm 1 mps 597 mmHg 40%

    Tomorrow, 18 July, Wednesday

    Time Temperature Precipitation Wind Pressure Humidity
    00:00 +27°C° 0.1 mm 1 mps 596 mmHg 42%
    01:00 +26°C° 0.1 mm 1 mps 596 mmHg 44%
    02:00 +23°C° 0.1 mm 0 mps 596 mmHg 46%
    03:00 +23°C° 0.1 mm 0 mps 596 mmHg 47%
    04:00 +23°C° 0.1 mm 0 mps 596 mmHg 47%
    05:00 +24°C° 0.1 mm 1 mps 596 mmHg 47%
    06:00 +23°C° 0 mm 0 mps 596 mmHg 44%
    07:00 +24°C° 0 mm 0 mps 596 mmHg 40%
    08:00 +25°C° 0 mm 0 mps 597 mmHg 36%
    09:00 +28°C° 0.1 mm 1 mps 597 mmHg 34%
    10:00 +29°C° 0.1 mm 1 mps 598 mmHg 31%
    11:00 +30°C° 0.1 mm 1 mps 598 mmHg 29%
    12:00 +31°C° 0.1 mm 1 mps 598 mmHg 26%
    13:00 +32°C° 0.1 mm 1 mps 598 mmHg 24%
    14:00 +34°C° 0.1 mm 2 mps 598 mmHg 22%
    15:00 +34°C° 0.2 mm 2 mps 598 mmHg 23%
    16:00 +34°C° 0.2 mm 3 mps 597 mmHg 24%
    17:00 +33°C° 0.2 mm 3 mps 597 mmHg 25%
    18:00 +33°C° 0.2 mm 3 mps 597 mmHg 27%
    19:00 +31°C° 0.2 mm 2 mps 597 mmHg 28%
    20:00 +30°C° 0.2 mm 2 mps 597 mmHg 29%
    21:00 +30°C° 0.2 mm 2 mps 597 mmHg 30%
    22:00 +29°C° 0.2 mm 2 mps 597 mmHg 32%
    23:00 +29°C° 0.2 mm 2 mps 597 mmHg 33%

    Day after tomorrow, 19 July, Thursday

    Time Temperature Precipitation Wind Pressure Humidity
    00:00 +28°C° 0.2 mm 1 mps 597 mmHg 35%
    01:00 +27°C° 0.2 mm 1 mps 597 mmHg 37%
    02:00 +26°C° 0.2 mm 1 mps 596 mmHg 39%
    03:00 +26°C° 0.1 mm 1 mps 596 mmHg 39%
    04:00 +25°C° 0.1 mm 1 mps 596 mmHg 38%
    05:00 +25°C° 0.1 mm 1 mps 596 mmHg 37%
    06:00 +25°C° 0 mm 1 mps 596 mmHg 34%
    07:00 +26°C° 0 mm 1 mps 596 mmHg 31%
    08:00 +27°C° 0 mm 1 mps 597 mmHg 27%
    09:00 +28°C° 0 mm 1 mps 597 mmHg 26%
    10:00 +29°C° 0 mm 1 mps 598 mmHg 24%
    11:00 +30°C° 0 mm 1 mps 598 mmHg 22%
    12:00 +31°C° 0.1 mm 1 mps 598 mmHg 21%
    13:00 +32°C° 0.1 mm 1 mps 598 mmHg 20%
    14:00 +33°C° 0.1 mm 1 mps 598 mmHg 19%
    15:00 +34°C° 0.1 mm 2 mps 598 mmHg 19%
    16:00 +34°C° 0.1 mm 2 mps 598 mmHg 19%
    17:00 +35°C° 0.1 mm 3 mps 597 mmHg 19%
    18:00 +34°C° 0.2 mm 3 mps 597 mmHg 21%
    19:00 +32°C° 0.2 mm 2 mps 597 mmHg 24%
    20:00 +31°C° 0.2 mm 2 mps 597 mmHg 26%
    21:00 +30°C° 0.2 mm 2 mps 597 mmHg 28%
    22:00 +29°C° 0.2 mm 2 mps 597 mmHg 29%
    23:00 +28°C° 0.2 mm 2 mps 597 mmHg 31%

    20 July, Friday

    Time Temperature Precipitation Wind Pressure Humidity
    00:00 +28°C° 0.2 mm 2 mps 596 mmHg 33%
    01:00 +27°C° 0.2 mm 1 mps 596 mmHg 35%
    02:00 +26°C° 0.2 mm 1 mps 595 mmHg 38%
    03:00 +26°C° 0 mm 1 mps 595 mmHg 37%
    04:00 +25°C° 0 mm 1 mps 595 mmHg 36%
    05:00 +25°C° 0 mm 1 mps 595 mmHg 35%
    06:00 +25°C° 0 mm 1 mps 595 mmHg 31%
    07:00 +26°C° 0 mm 1 mps 596 mmHg 28%
    08:00 +27°C° 0 mm 1 mps 596 mmHg 24%
    09:00 +28°C° 0 mm 1 mps 597 mmHg 22%
    10:00 +29°C° 0 mm 1 mps 597 mmHg 20%
    11:00 +30°C° 0 mm 1 mps 597 mmHg 18%
    12:00 +31°C° 0 mm 1 mps 597 mmHg 16%
    13:00 +32°C° 0 mm 1 mps 597 mmHg 15%
    14:00 +33°C° 0 mm 1 mps 597 mmHg 13%
    15:00 +34°C° 0.1 mm 1 mps 597 mmHg 13%
    16:00 +35°C° 0.1 mm 2 mps 597 mmHg 12%
    17:00 +35°C° 0.1 mm 2 mps 597 mmHg 11%
    18:00 +34°C° 0.1 mm 2 mps 597 mmHg 14%
    19:00 +33°C° 0.1 mm 3 mps 597 mmHg 16%
    20:00 +31°C° 0.1 mm 3 mps 597 mmHg 19%
    21:00 +30°C° 0.1 mm 2 mps 596 mmHg 22%
    22:00 +29°C° 0.1 mm 2 mps 596 mmHg 25%
    23:00 +28°C° 0.1 mm 2 mps 596 mmHg 28%

    21 July, Saturday

    Time Temperature Precipitation Wind Pressure Humidity
    00:00 +27°C° 0 mm 1 mps 596 mmHg 30%
    01:00 +27°C° 0 mm 1 mps 595 mmHg 31%
    02:00 +26°C° 0 mm 1 mps 595 mmHg 33%
    03:00 +25°C° 0 mm 1 mps 595 mmHg 31%
    04:00 +25°C° 0 mm 1 mps 594 mmHg 30%
    05:00 +24°C° 0 mm 1 mps 594 mmHg 29%
    06:00 +25°C° 0 mm 1 mps 595 mmHg 26%
    07:00 +26°C° 0 mm 1 mps 595 mmHg 23%
    08:00 +27°C° 0 mm 1 mps 596 mmHg 20%
    09:00 +28°C° 0 mm 1 mps 596 mmHg 19%
    10:00 +29°C° 0 mm 1 mps 596 mmHg 17%
    11:00 +30°C° 0 mm 1 mps 597 mmHg 16%
    12:00 +31°C° 0 mm 1 mps 597 mmHg 15%
    13:00 +32°C° 0 mm 1 mps 597 mmHg 14%
    14:00 +33°C° 0 mm 1 mps 597 mmHg 12%
    15:00 +34°C° 0 mm 1 mps 597 mmHg 12%
    16:00 +35°C° 0 mm 2 mps 596 mmHg 11%
    17:00 +36°C° 0 mm 2 mps 596 mmHg 11%
    18:00 +35°C° 0 mm 2 mps 596 mmHg 13%
    19:00 +34°C° 0 mm 2 mps 596 mmHg 15%
    20:00 +32°C° 0 mm 2 mps 597 mmHg 18%
    21:00 +30°C° 0.1 mm 2 mps 596 mmHg 21%
    22:00 +29°C° 0.1 mm 2 mps 596 mmHg 25%
    23:00 +28°C° 0.1 mm 2 mps 596 mmHg 29%

    22 July, Sunday

    Time Temperature Precipitation Wind Pressure Humidity
    00:00 +27°C° 0 mm 2 mps 596 mmHg 31%
    01:00 +27°C° 0 mm 1 mps 595 mmHg 33%
    02:00 +26°C° 0 mm 1 mps 595 mmHg 34%
    03:00 +25°C° 0 mm 1 mps 595 mmHg 33%
    04:00 +24°C° 0 mm 1 mps 594 mmHg 31%
    05:00 +24°C° 0 mm 1 mps 594 mmHg 30%
    06:00 +25°C° 0 mm 1 mps 594 mmHg 25%
    07:00 +26°C° 0 mm 1 mps 595 mmHg 21%
    08:00 +27°C° 0 mm 2 mps 595 mmHg 16%
    09:00 +28°C° 0 mm 2 mps 596 mmHg 14%
    10:00 +29°C° 0 mm 2 mps 596 mmHg 12%
    11:00 +31°C° 0 mm 2 mps 596 mmHg 10%
    12:00 +32°C° 0 mm 2 mps 596 mmHg 9%
    13:00 +34°C° 0 mm 2 mps 596 mmHg 8%
    14:00 +35°C° 0 mm 2 mps 596 mmHg 8%
    15:00 +35°C° 0 mm 2 mps 596 mmHg 8%
    16:00 +36°C° 0 mm 2 mps 596 mmHg 8%
    17:00 +36°C° 0 mm 2 mps 595 mmHg 8%
    18:00 +35°C° 0 mm 2 mps 595 mmHg 10%
    19:00 +34°C° 0 mm 2 mps 595 mmHg 12%
    20:00 +31°C° 0 mm 2 mps 595 mmHg 14%
    21:00 +30°C° 0 mm 2 mps 595 mmHg 17%
    22:00 +29°C° 0 mm 2 mps 595 mmHg 19%
    23:00 +28°C° 0 mm 2 mps 595 mmHg 22%
    Show more